Wind_Speed
29 26 32 35 27 27 36 37 36 34 36 35 38 38 36 35 33 31 26 23 28 35 32 23 25 28 30 32 31 33 26 23 20 17 16 15 12 14 16 17 17 18 19
18 24 23 19 17 19 27 27 33 39 39 39 32 36 40 39 39 30 27 27 26 29 27 22 25 26 28 30 31 27 25 23 22 21 21 21 19 18 19 19 19 18 22
22 27 19 16 15 17 19 27 28 31 36 38 38 36 30 33 32 32 28 27 26 28 32 32 30 31 31 30 29 28 26 23 23 23 24 23 20 21 22 26 29 31 31
15 14 8 7 12 10 12 15 21 25 29 35 37 36 39 33 30 32 29 29 31 32 31 31 34 35 29 27 27 28 25 26 28 29 21 20 22 24 26 28 31 31 31
22 19 19 11 11 10 13 15 17 22 24 29 34 30 27 26 27 21 26 26 27 32 34 31 27 27 24 24 25 22 18 19 20 20 21 23 26 29 30 31 32 33 36
30 27 28 22 20 15 18 21 20 24 26 29 31 36 31 28 29 30 25 28 28 31 30 26 25 24 25 23 20 20 20 20 19 21 22 23 24 27 29 33 35 39 43
34 33 37 36 28 17 13 18 25 30 33 34 34 33 35 34 32 33 33 29 28 32 30 28 26 28 27 28 28 27 28 27 28 28 28 31 34 36 37 40 43 42 45
31 24 14 13 9 14 18 17 19 23 30 38 41 41 35 33 33 33 34 33 32 32 31 33 32 28 28 28 27 26 28 30 33 32 32 34 37 39 41 43 45 48 49
23 20 18 12 13 19 23 26 33 27 38 36 42 41 42 39 37 36 36 35 35 35 36 36 34 32 31 33 34 35 36 37 37 39 40 42 46 48 48 50 50 53 55
17 24 23 26 27 26 26 30 27 24 23 38 48 46 46 44 41 43 41 41 39 39 39 38 39 38 40 38 40 42 44 45 43 44 45 47 50 52 56 58 60 59 63
12 16 20 21 28 21 15 15 27 25 26 24 37 50 49 48 48 47 47 46 46 42 44 43 45 46 46 47 48 46 47 47 48 49 52 54 57 60 62 65 63 64 67
23 24 22 24 36 21 19 19 27 26 27 24 26 33 45 50 53 50 49 50 49 46 42 45 50 53 53 53 52 52 56 58 61 60 60 62 64 70 69 69 69 70 71
24 24 36 33 41 31 27 28 27 34 34 43 30 23 27 40 51 56 57 57 56 58 56 56 57 56 57 58 61 63 66 68 68 69 67 71 74 75 73 74 74 73 75
26 24 31 36 40 41 40 30 28 32 34 36 26 25 25 32 41 48 61 63 64 65 63 61 62 63 65 64 68 69 69 70 72 71 71 70 70 72 73 73 76 81 83
30 28 38 42 46 46 46 38 34 31 32 28 23 21 24 22 26 39 47 50 52 52 55 54 57 62 65 67 68 69 70 70 72 76 77 78 79 79 81 85 85 80 75
39 44 46 50 52 53 51 43 37 31 32 29 27 26 25 25 19 21 22 32 42 47 49 48 47 53 60 62 64 64 63 66 68 71 76 77 76 72 69 71 70 71 72
48 52 52 52 53 53 52 51 41 38 39 40 36 35 33 31 29 26 23 21 25 31 35 41 48 52 57 63 70 72 75 78 70 74 84 86 87 88 90 89 90 85 87
54 60 60 59 60 55 53 54 49 44 47 46 42 39 37 38 30 31 28 30 31 31 34 35 37 41 54 59 63 62 74 68 72 76 76 74 74 74 75 77 76 76 77
66 64 62 61 63 60 55 58 58 56 61 53 48 50 48 42 38 30 32 41 41 42 41 45 57 64 71 71 72 69 73 71 73 77 77 76 77 78 78 78 79 82 83
63 65 67 69 66 62 64 67 65 67 61 57 54 57 53 54 54 50 60 55 61 62 70 78 71 76 87 89 81 72 70 71 71 72 77 87 83 85 85 86 88 89 91
72 72 74 72 67 66 67 68 65 65 62 61 57 58 62 69 67 60 55 71 80 83 84 86 86 90 88 80 77 77 80 77 80 81 86 94 94 94 91 92 93 96 96
68 63 62 64 69 72 72 71 66 61 66 67 70 70 69 74 84 87 89 87 93 85 91 93 93 91 94 89 83 80 82 87 91 93 91 92 95 97 97 99 99 105 105
78 79 79 80 82 71 63 65 70 71 73 74 75 80 87 93 101 94 98 94 95 106 104 94 96 95 95 92 89 91 92 98 100 101 102 104 106 106 108 108 111 107 107
71 72 73 75 74 74 75 80 84 85 83 86 96 102 99 98 95 96 109 113 114 113 106 102 100 99 96 89 86 87 87 87 89 91 95 99 98 98 102 98 104 106 97
84 84 84 84 84 87 85 86 90 93 94 100 106 108 110 109 106 108 107 111 110 110 107 107 101 97 86 79 74 71 72 73 72 72 73 73 74 74 75 75 80 85 84
84 85 87 87 90 92 93 96 100 101 104 108 113 110 107 110 108 106 107 104 106 106 98 92 84 76 72 73 73 72 72 71 71 72 73 73 74 73 73 73 74 75 75
Wind_Direction
274 282 300 286 281 269 253 248 259 266 261 254 252 256 258 261 265 271 255 260 254 239 239 230 243 256 259 265 277 278 273 284 272 258 266 272 267 246 248 254 258 268 277
284 284 287 291 307 299 250 253 255 259 265 265 272 268 264 268 266 258 260 264 248 236 231 241 246 255 265 272 273 270 265 274 269 266 271 271 273 262 263 258 255 271 288
278 275 279 284 299 298 275 255 264 261 263 264 266 267 274 275 261 257 254 241 243 242 247 246 249 258 262 269 264 262 263 266 276 278 280 274 262 257 260 260 261 264 281
263 273 252 288 301 300 307 276 271 270 261 263 268 271 273 273 266 260 254 244 241 238 245 254 257 263 257 262 258 256 259 268 278 283 275 270 264 262 264 261 266 277 282
244 252 246 306 270 295 303 289 279 261 259 261 263 261 261 265 257 258 259 248 242 244 250 253 252 253 253 257 257 253 256 265 274 270 274 272 270 270 276 280 287 287 292
250 246 251 268 267 275 280 273 274 272 264 258 256 249 251 253 256 261 271 262 253 250 245 243 243 247 247 251 253 260 256 262 262 271 277 281 283 281 280 285 286 284 288
246 251 253 259 269 272 281 281 277 265 259 254 252 249 245 245 245 255 266 270 256 252 246 248 255 257 258 257 257 257 261 268 271 275 276 281 283 286 289 289 286 285 286
247 252 244 250 240 260 274 293 299 284 264 256 252 252 245 243 238 247 255 254 253 250 254 255 259 260 260 261 261 265 270 275 280 279 278 280 281 284 289 291 289 289 292
225 225 226 249 297 295 291 282 281 299 270 261 250 250 251 247 233 242 247 248 250 250 248 255 256 259 263 267 267 268 268 276 279 276 276 278 280 282 285 291 291 292 292
253 234 244 266 269 290 291 282 293 292 284 262 254 250 247 248 240 241 243 251 254 254 252 258 261 261 258 262 264 268 269 274 275 272 273 275 278 283 287 291 295 293 291
303 267 277 290 299 308 315 343 2 335 293 293 265 249 249 245 245 242 248 253 255 259 266 265 265 265 265 268 272 271 271 272 272 271 274 279 282 285 287 293 291 289 290
283 287 293 290 314 306 308 331 351 7 0 327 306 271 251 246 244 246 250 255 258 260 261 262 265 271 274 274 273 270 272 274 275 277 279 282 285 289 290 290 287 285 288
285 286 292 288 295 297 305 299 319 325 337 340 327 300 279 267 252 247 248 251 257 260 259 263 266 268 270 271 273 275 275 278 281 284 283 283 286 288 288 283 285 281 285
267 278 287 285 286 286 302 297 306 310 327 334 331 335 311 274 262 254 247 252 258 260 261 263 266 268 269 270 274 277 278 278 280 281 281 281 280 280 279 278 275 281 287
249 264 263 271 280 288 292 293 288 297 316 325 329 309 331 329 295 271 264 263 262 262 263 266 268 269 270 272 273 273 274 274 275 279 282 282 282 280 278 280 284 287 292
243 252 265 267 276 278 284 288 278 285 303 313 324 315 301 328 333 309 298 282 278 277 278 279 281 277 277 281 283 289 290 290 288 286 284 282 280 281 284 287 285 285 283
261 264 264 269 271 277 286 285 281 280 296 314 309 293 307 305 302 306 299 301 306 300 292 294 295 294 294 293 288 287 290 294 288 281 277 274 275 274 277 276 279 282 282
254 259 265 271 274 276 280 285 281 278 295 307 305 292 297 305 296 297 290 296 292 288 288 285 286 288 301 302 309 294 299 298 292 287 284 283 282 280 279 279 281 280 280
254 259 264 267 271 275 279 285 279 279 295 301 299 295 290 300 303 293 293 298 302 292 290 291 301 302 309 301 300 297 301 295 291 286 284 282 282 283 284 284 285 284 285
251 260 265 267 271 277 279 284 281 282 293 296 292 293 294 299 302 297 297 298 307 301 301 302 307 309 308 307 302 292 289 289 284 278 273 278 281 280 280 281 282 283 285
258 261 263 270 272 275 277 270 280 286 288 285 286 286 288 297 300 302 302 306 305 306 310 313 311 305 304 301 298 282 276 279 279 275 272 275 279 280 282 282 283 284 284
260 261 262 265 266 269 269 275 286 282 278 278 284 289 296 301 301 301 306 308 309 308 311 307 306 304 303 298 292 288 282 278 278 278 278 276 276 278 278 279 280 281 284
265 267 267 268 272 272 268 266 266 270 275 281 285 290 295 299 302 302 301 306 307 309 307 301 302 301 297 291 285 281 280 277 276 274 272 271 273 276 277 278 279 282 283
262 266 273 271 272 271 270 269 274 277 279 280 289 295 298 299 300 302 304 304 304 301 298 296 296 297 295 290 285 282 280 279 278 275 273 273 273 274 277 278 279 280 279
265 269 270 272 276 276 277 276 280 287 290 292 295 297 297 299 300 302 303 301 301 298 295 298 294 294 292 289 286 284 282 281 280 279 278 278 278 279 278 277 276 277 280
263 266 268 270 271 273 280 281 285 289 292 293 296 296 296 298 296 297 298 299 299 296 297 294 291 290 289 286 283 283 282 281 280 279 278 277 278 278 278 278 276 277 278
Height
10872 10872 10871 10869 10867 10867 10866 10869 10870 10872 10875 10878 10879 10879 10880 10881 10882 10883 10883 10881 10881 10882 10884 10884 10887 10889 10889 10888 10888 10886 10884 10883 10882 10881 10881 10880 10879 10879 10877 10878 10878 10878 10878
10864 10863 10861 10859 10857 10858 10859 10860 10862 10863 10865 10867 10869 10872 10874 10874 10875 10876 10875 10874 10875 10875 10876 10877 10878 10879 10879 10879 10879 10878 10877 10876 10876 10875 10874 10874 10873 10872 10871 10870 10870 10869 10869
10854 10854 10851 10851 10850 10850 10851 10851 10853 10856 10857 10859 10861 10864 10864 10865 10865 10866 10865 10867 10868 10869 10869 10869 10869 10870 10870 10869 10869 10871 10870 10870 10869 10869 10868 10867 10866 10865 10864 10863 10862 10862 10861
10848 10848 10845 10845 10844 10843 10844 10844 10845 10847 10848 10850 10852 10854 10855 10856 10857 10857 10857 10858 10859 10861 10862 10861 10862 10863 10862 10860 10860 10861 10862 10862 10862 10861 10859 10859 10859 10859 10857 10855 10854 10853 10851
10838 10839 10839 10839 10839 10838 10838 10838 10837 10837 10838 10840 10842 10845 10846 10847 10848 10850 10851 10851 10851 10853 10853 10853 10854 10854 10854 10853 10853 10853 10853 10853 10853 10853 10852 10851 10851 10850 10850 10848 10846 10844 10842
10829 10830 10828 10830 10831 10832 10832 10831 10831 10830 10829 10830 10831 10834 10836 10839 10840 10842 10843 10844 10844 10845 10845 10846 10847 10847 10847 10846 10846 10848 10847 10846 10845 10845 10844 10843 10842 10841 10839 10838 10836 10834 10831
10819 10821 10822 10822 10822 10824 10823 10822 10822 10821 10821 10821 10822 10822 10824 10827 10829 10831 10833 10834 10837 10838 10838 10839 10839 10840 10839 10838 10837 10838 10838 10838 10837 10836 10835 10834 10832 10831 10829 10827 10825 10822 10819
10813 10815 10814 10814 10814 10816 10815 10813 10812 10812 10812 10813 10813 10814 10814 10816 10819 10821 10823 10825 10827 10828 10829 10830 10831 10831 10830 10829 10829 10828 10828 10828 10827 10825 10824 10822 10820 10818 10816 10814 10811 10809 10806
10808 10808 10809 10809 10809 10807 10807 10805 10805 10803 10801 10801 10804 10805 10806 10808 10809 10811 10814 10816 10817 10817 10818 10819 10820 10820 10820 10819 10819 10819 10818 10817 10815 10813 10812 10810 10808 10805 10803 10801 10798 10795 10791
10802 10803 10804 10806 10804 10803 10801 10798 10794 10793 10791 10789 10792 10795 10797 10799 10800 10802 10803 10805 10806 10807 10808 10807 10808 10807 10807 10807 10807 10807 10806 10805 10803 10801 10799 10796 10794 10791 10788 10785 10781 10777 10774
10795 10796 10798 10799 10799 10797 10794 10791 10784 10779 10778 10778 10778 10779 10784 10788 10791 10791 10793 10794 10794 10794 10795 10795 10794 10795 10795 10794 10794 10793 10792 10791 10789 10788 10786 10783 10779 10775 10772 10769 10765 10761 10757
10787 10789 10789 10790 10792 10790 10788 10782 10779 10777 10773 10771 10769 10767 10769 10774 10778 10782 10782 10783 10783 10783 10782 10781 10780 10781 10781 10780 10780 10779 10778 10776 10775 10773 10771 10767 10763 10760 10756 10752 10747 10743 10738
10781 10781 10781 10780 10782 10783 10779 10777 10774 10772 10767 10764 10760 10758 10760 10763 10766 10768 10771 10772 10770 10770 10769 10769 10768 10768 10767 10766 10765 10763 10761 10758 10757 10755 10753 10751 10746 10741 10738 10732 10727 10724 10718
10769 10769 10772 10772 10773 10774 10772 10770 10768 10765 10762 10758 10756 10754 10753 10753 10752 10754 10756 10757 10757 10757 10756 10755 10754 10753 10751 10750 10748 10746 10743 10740 10738 10736 10733 10730 10726 10722 10718 10713 10707 10703 10699
10755 10757 10759 10760 10762 10762 10762 10762 10760 10759 10757 10755 10753 10751 10750 10746 10744 10743 10743 10743 10742 10741 10741 10740 10738 10737 10736 10734 10731 10728 10724 10721 10717 10715 10711 10708 10704 10700 10696 10691 10686 10681 10675
10740 10743 10746 10748 10749 10748 10750 10753 10750 10748 10749 10750 10747 10745 10744 10740 10738 10734 10732 10731 10731 10729 10727 10725 10723 10721 10719 10717 10715 10710 10705 10701 10698 10693 10687 10683 10679 10676 10672 10667 10664 10660 10655
10732 10733 10732 10734 10734 10737 10738 10738 10737 10736 10737 10738 10737 10734 10732 10729 10726 10724 10722 10719 10718 10715 10711 10710 10710 10708 10706 10703 10698 10693 10687 10682 10678 10671 10665 10661 10657 10655 10650 10646 10643 10638 10632
10718 10716 10720 10722 10722 10723 10723 10725 10724 10723 10723 10724 10725 10724 10721 10719 10715 10712 10709 10707 10704 10701 10698 10694 10691 10688 10686 10683 10677 10664 10664 10657 10653 10648 10643 10638 10635 10631 10626 10621 10618 10613 10608
10703 10705 10707 10708 10708 10706 10707 10709 10709 10707 10707 10708 10708 10707 10704 10703 10701 10698 10696 10694 10692 10691 10687 10683 10679 10673 10665 10658 10655 10650 10639 10630 10625 10619 10615 10612 10608 10605 10600 10595 10592 10586 10582
10690 10691 10692 10692 10692 10691 10692 10692 10694 10692 10691 10690 10690 10689 10685 10681 10682 10682 10679 10674 10671 10669 10666 10660 10650 10645 10640 10630 10622 10613 10609 10605 10601 10595 10586 10580 10580 10576 10574 10568 10563 10559 10553
10672 10674 10675 10675 10675 10676 10677 10678 10676 10674 10673 10672 10669 10667 10664 10662 10659 10657 10653 10650 10646 10641 10634 10626 10616 10608 10603 10597 10593 10587 10583 10577 10573 10569 10565 10554 10551 10547 10544 10539 10535 10528 10525
10656 10655 10656 10659 10660 10660 10659 10659 10657 10656 10654 10651 10649 10647 10644 10640 10638 10633 10628 10621 10617 10608 10602 10593 10585 10579 10573 10564 10560 10554 10549 10545 10538 10533 10531 10525 10518 10514 10511 10507 10505 10498 10496
10641 10643 10643 10644 10643 10641 10640 10639 10636 10633 10632 10630 10627 10625 10622 10619 10615 10608 10601 10593 10586 10578 10569 10560 10553 10547 10541 10534 10527 10522 10516 10510 10504 10500 10497 10492 10485 10482 10476 10475 10470 10466 10462
10624 10624 10626 10624 10623 10622 10621 10620 10618 10615 10614 10611 10610 10605 10598 10593 10584 10581 10573 10564 10555 10545 10535 10528 10522 10516 10507 10499 10491 10485 10478 10472 10468 10464 10460 10458 10454 10451 10443 10446 10434 10428 10431
10604 10604 10604 10603 10604 10602 10601 10599 10597 10595 10592 10590 10583 10579 10572 10563 10555 10547 10538 10529 10521 10516 10507 10498 10487 10478 10469 10466 10460 10452 10447 10444 10439 10434 10430 10426 10423 10419 10417 10416 10412 10405 10400
10586 10585 10583 10582 10580 10579 10580 10578 10575 10573 10569 10564 10558 10550 10542 10534 10525 10517 10508 10498 10489 10484 10475 10466 10458 10451 10443 10438 10432 10426 10421 10417 10412 10407 10403 10399 10396 10394 10391 10388 10385 10381 10377